sat.trackr.live / text

‹ back to catalog

AURA

NORAD 28376 · 2004-026A

PAYLOAD ACTIVE UNKNOWN

§ Identity

Operator
Country
US
Launch date
2004-07-15
Launch site
AFWTR
Launch vehicle
Mass (kg)
RCS (m²)
9.44

Purposes: earth_obs

External: N2YO · Heavens-Above · Gunter

§ Orbital elements

Epoch: 2026-09-19T21:12:08.796960Z

Period
98.53 min
Inclination
98.3523°
Eccentricity
0.0001420
Mean motion
14.61445525 rev/d
Perigee alt
687.5 km
Apogee alt
689.5 km
Semi-major
7,066.6 km
B*
1.0672e-4
RAAN
220.1736°
Arg perigee
68.4023°
Mean anomaly
291.7329°
Rev number
18,004

§ Raw data

AURA1 28376U 04026A   26262.88343515  .00000480  00000+0  10672-3 0  99932 28376  98.3523 220.1736 0001420  68.4023 291.7329 14.61445525180042

JSON: /api/v1/satellites/28376 · /tle

For live sub-satellite position, see the globe view (requires WebGL).

§ Visibility from observer

Set your observer location to see the next 7 days of passes ≥ 10°. The values pass through the URL so the page stays shareable.

No JS? Fill the form by hand. The geolocation button needs JavaScript.

§ Radio — SatNOGS DB

ModeDescriptionDownlinkUplink
BPSK S-band telemetry 2.288 GHz
X Band downlink 8.160 GHz

2 transmitters · refreshed weekly from db.satnogs.org